{"data":{"norad_id":46718,"intl_designator":"2020-073BA","name":"STARLINK-1821","alt_names":[],"object_type":"PAYLOAD","status":"ACTIVE","operator":null,"country":"US","launch_date":"2020-10-18","launch_site_code":"AFETR","launch_vehicle":null,"mission":null,"orbit_class":"UNKNOWN","rcs_meters":null,"size_class":null,"mass_kg":null,"dimensions":null,"purposes":["comms"],"wikipedia_slug":null,"has_3d_model":false,"image_url":null,"decayed_at":null,"tle_current":{"epoch":"2026-09-20T00:04:28.842240Z","epoch_age_seconds":64940,"freshness":"FRESH","line1":"1 46718U 20073BA  26263.00311160  .00118994  00000+0  93672-3 0  9990","line2":"2 46718  53.0345  10.3238 0002476 324.3893  35.6958 15.70620208327533","mean_motion":15.70620208,"eccentricity":0.0002476,"inclination_deg":53.0345,"raan_deg":10.3238,"arg_perigee_deg":324.3893,"mean_anomaly_deg":35.6958,"bstar":0.00093672,"rev_number":32753,"period_min":91.683526842792,"perigee_km":355.45569103681,"apogee_km":358.79099195792,"semimajor_km":6735.2603414974,"source":"CELESTRAK","updated_at":"2026-09-20T09:00:38.586883Z"}}}